Time,TemperatureF,DewpointF,PressureIn,WindDirection,WindDirectionDegrees,WindSpeedMPH,WindSpeedGustMPH,Humidity,HourlyPrecipIn,Conditions,Clouds,dailyrainin,SolarRadiationWatts/m^2,SoftwareType,DateUTC
2013-04-18 00:00:00,38.9,35.9,29.72,NNW,342,15.0,22.0,89,0.06,,---,0.72,0.00,VWS V14.01,2013-04-18 05:00:00,
2013-04-18 00:03:00,38.9,35.9,29.73,NW,317,16.0,22.0,89,0.03,,---,0.00,0.00,VWS V14.01,2013-04-18 05:03:00,
2013-04-18 00:08:00,39.1,35.8,29.74,NW,313,12.0,22.0,88,0.04,,---,0.01,0.00,VWS V14.01,2013-04-18 05:08:00,
2013-04-18 00:13:00,39.1,35.8,29.74,NNW,346,16.0,22.0,88,0.05,,---,0.02,0.00,VWS V14.01,2013-04-18 05:13:00,
2013-04-18 00:18:00,38.9,35.7,29.74,NNW,336,8.0,22.0,88,0.06,,---,0.03,0.00,VWS V14.01,2013-04-18 05:18:00,
2013-04-18 00:23:00,38.9,35.7,29.72,North,350,9.0,22.0,88,0.07,,---,0.04,0.00,VWS V14.01,2013-04-18 05:23:00,
2013-04-18 00:28:00,38.9,35.7,29.73,North,355,7.0,22.0,88,0.08,,---,0.05,0.00,VWS V14.01,2013-04-18 05:28:00,
2013-04-18 00:30:00,38.9,35.4,29.73,North,360,16.0,22.0,87,0.08,,---,0.05,0.00,VWS V14.01,2013-04-18 05:30:00,
2013-04-18 00:33:00,39.1,35.6,29.74,NNW,336,18.0,24.0,87,0.07,,---,0.05,0.00,VWS V14.01,2013-04-18 05:33:00,
2013-04-18 00:38:00,39.1,35.6,29.74,NNW,336,11.0,24.0,87,0.07,,---,0.05,0.00,VWS V14.01,2013-04-18 05:38:00,
2013-04-18 00:43:00,39.1,35.3,29.75,WNW,302,12.0,24.0,86,0.07,,---,0.05,0.00,VWS V14.01,2013-04-18 05:43:00,
2013-04-18 00:48:00,38.9,35.4,29.74,North,349,17.0,24.0,87,0.07,,---,0.05,0.00,VWS V14.01,2013-04-18 05:48:00,
2013-04-18 00:53:00,38.8,35.3,29.74,NNW,335,16.0,26.0,87,0.07,,---,0.05,0.00,VWS V14.01,2013-04-18 05:53:00,
2013-04-18 00:58:00,38.8,35.0,29.75,NNW,342,12.0,26.0,86,0.07,,---,0.05,0.00,VWS V14.01,2013-04-18 05:58:00,
2013-04-18 01:00:00,38.8,35.0,29.75,NW,311,14.0,26.0,86,0.07,,---,0.05,0.00,VWS V14.01,2013-04-18 06:00:00,
2013-04-18 01:03:00,38.6,34.8,29.75,NNW,338,13.0,22.0,86,0.05,,---,0.05,0.00,VWS V14.01,2013-04-18 06:03:00,
2013-04-18 01:08:00,38.3,34.5,29.72,North,5,13.0,25.0,86,0.05,,---,0.05,0.00,VWS V14.01,2013-04-18 06:08:00,
2013-04-18 01:13:00,38.2,34.4,29.73,NNE,12,21.0,25.0,86,0.05,,---,0.05,0.00,VWS V14.01,2013-04-18 06:13:00,
2013-04-18 01:18:00,38.2,34.1,29.73,NNW,338,15.0,26.0,85,0.05,,---,0.05,0.00,VWS V14.01,2013-04-18 06:18:00,
2013-04-18 01:23:00,38.2,34.1,29.73,NNW,340,23.0,26.0,85,0.05,,---,0.05,0.00,VWS V14.01,2013-04-18 06:23:00,
2013-04-18 01:28:00,38.2,34.1,29.75,WNW,300,21.0,26.0,85,0.05,,---,0.05,0.00,VWS V14.01,2013-04-18 06:28:00,
2013-04-18 01:30:00,38.2,34.1,29.75,NW,320,22.0,26.0,85,0.05,,---,0.05,0.00,VWS V14.01,2013-04-18 06:30:00,
2013-04-18 01:33:00,38.2,34.4,29.75,NNW,336,17.0,22.0,86,0.00,,---,0.05,0.00,VWS V14.01,2013-04-18 06:33:00,
2013-04-18 01:38:00,38.0,34.2,29.74,North,355,17.0,22.0,86,0.00,,---,0.05,0.00,VWS V14.01,2013-04-18 06:38:00,
2013-04-18 01:43:00,37.9,34.1,29.75,NW,318,18.0,22.0,86,0.00,,---,0.05,0.00,VWS V14.01,2013-04-18 06:43:00,
2013-04-18 01:48:00,37.6,33.8,29.74,NNW,329,10.0,22.0,86,0.01,,---,0.06,0.00,VWS V14.01,2013-04-18 06:48:00,
2013-04-18 01:53:00,37.5,34.0,29.75,NNW,336,17.0,24.0,87,0.02,,---,0.07,0.00,VWS V14.01,2013-04-18 06:53:00,
2013-04-18 01:58:00,37.2,33.7,29.76,NW,307,17.0,26.0,87,0.02,,---,0.07,0.00,VWS V14.01,2013-04-18 06:58:00,
2013-04-18 02:00:00,37.2,34.0,29.76,NW,318,21.0,26.0,88,0.02,,---,0.07,0.00,VWS V14.01,2013-04-18 07:00:00,
2013-04-18 02:03:00,36.9,33.7,29.75,NNW,338,19.0,27.0,88,0.02,,---,0.07,0.00,VWS V14.01,2013-04-18 07:03:00,
2013-04-18 02:08:00,36.8,33.6,29.74,North,5,17.0,27.0,88,0.03,,---,0.08,0.00,VWS V14.01,2013-04-18 07:08:00,
2013-04-18 02:13:00,36.6,33.4,29.75,North,350,21.0,27.0,88,0.03,,---,0.08,0.00,VWS V14.01,2013-04-18 07:13:00,
2013-04-18 02:18:00,36.5,33.3,29.73,ENE,76,10.0,27.0,88,0.03,,---,0.08,0.00,VWS V14.01,2013-04-18 07:18:00,
2013-04-18 02:24:00,36.3,33.1,29.74,NNW,339,16.0,27.0,88,0.04,,---,0.09,0.00,VWS V14.01,2013-04-18 07:24:00,
2013-04-18 02:29:00,36.3,33.1,29.75,NW,323,11.0,27.0,88,0.04,,---,0.09,0.00,VWS V14.01,2013-04-18 07:29:00,
2013-04-18 02:30:00,36.3,33.1,29.75,NNW,338,16.0,27.0,88,0.04,,---,0.09,0.00,VWS V14.01,2013-04-18 07:30:00,
2013-04-18 02:34:00,36.2,33.3,29.74,North,9,11.0,20.0,89,0.04,,---,0.09,0.00,VWS V14.01,2013-04-18 07:34:00,
2013-04-18 02:39:00,36.0,33.1,29.73,NNW,344,18.0,26.0,89,0.04,,---,0.09,0.00,VWS V14.01,2013-04-18 07:39:00,
2013-04-18 02:44:00,36.0,33.1,29.73,NNW,340,15.0,26.0,89,0.04,,---,0.09,0.00,VWS V14.01,2013-04-18 07:44:00,
2013-04-18 02:49:00,36.0,33.1,29.74,NNW,327,12.0,26.0,89,0.04,,---,0.09,0.00,VWS V14.01,2013-04-18 07:49:00,
2013-04-18 02:54:00,35.9,33.0,29.74,NW,315,9.0,26.0,89,0.04,,---,0.09,0.00,VWS V14.01,2013-04-18 07:54:00,
2013-04-18 02:59:00,35.9,33.0,29.74,NNW,332,14.0,26.0,89,0.04,,---,0.09,0.00,VWS V14.01,2013-04-18 07:59:00,
2013-04-18 03:00:00,35.9,33.0,29.74,North,355,13.0,26.0,89,0.04,,---,0.09,0.00,VWS V14.01,2013-04-18 08:00:00,
2013-04-18 03:04:00,35.8,32.9,29.73,NW,315,12.0,21.0,89,0.02,,---,0.09,0.00,VWS V14.01,2013-04-18 08:04:00,
2013-04-18 03:09:00,35.6,32.7,29.73,NNW,336,12.0,21.0,89,0.03,,---,0.10,0.00,VWS V14.01,2013-04-18 08:09:00,
2013-04-18 03:14:00,35.5,32.6,29.74,North,350,11.0,21.0,89,0.03,,---,0.10,0.00,VWS V14.01,2013-04-18 08:14:00,
2013-04-18 03:19:00,35.3,32.4,29.74,North,360,17.0,24.0,89,0.03,,---,0.10,0.00,VWS V14.01,2013-04-18 08:19:00,
2013-04-18 03:24:00,35.3,32.1,29.74,NW,322,17.0,25.0,88,0.03,,---,0.10,0.00,VWS V14.01,2013-04-18 08:24:00,
2013-04-18 03:29:00,35.3,31.8,29.75,NNW,327,16.0,27.0,87,0.03,,---,0.10,0.00,VWS V14.01,2013-04-18 08:29:00,
2013-04-18 03:30:00,35.2,31.7,29.75,NW,304,12.0,27.0,87,0.03,,---,0.10,0.00,VWS V14.01,2013-04-18 08:30:00,
2013-04-18 03:34:00,35.2,31.7,29.75,NNE,13,11.0,24.0,87,0.01,,---,0.10,0.00,VWS V14.01,2013-04-18 08:34:00,
2013-04-18 03:39:00,35.2,31.4,29.75,NNW,331,20.0,28.0,86,0.01,,---,0.10,0.00,VWS V14.01,2013-04-18 08:39:00,
2013-04-18 03:44:00,35.2,31.4,29.76,NW,323,18.0,28.0,86,0.01,,---,0.10,0.00,VWS V14.01,2013-04-18 08:44:00,
2013-04-18 03:49:00,35.0,31.2,29.76,NNW,338,19.0,28.0,86,0.01,,---,0.10,0.00,VWS V14.01,2013-04-18 08:49:00,
2013-04-18 03:54:00,35.0,31.0,29.76,NNW,336,16.0,28.0,85,0.01,,---,0.10,0.00,VWS V14.01,2013-04-18 08:54:00,
2013-04-18 03:59:00,35.0,31.2,29.76,NW,321,11.0,28.0,86,0.01,,---,0.10,0.00,VWS V14.01,2013-04-18 08:59:00,
2013-04-18 04:00:00,35.0,31.2,29.76,WNW,301,9.0,28.0,86,0.01,,---,0.10,0.00,VWS V14.01,2013-04-18 09:00:00,
2013-04-18 04:04:00,35.0,31.2,29.76,NW,321,16.0,20.0,86,0.01,,---,0.10,0.00,VWS V14.01,2013-04-18 09:04:00,
2013-04-18 04:09:00,34.9,31.1,29.75,NNW,347,13.0,22.0,86,0.01,,---,0.10,0.00,VWS V14.01,2013-04-18 09:09:00,
2013-04-18 04:14:00,34.9,31.1,29.75,NNW,334,20.0,23.0,86,0.01,,---,0.10,0.00,VWS V14.01,2013-04-18 09:14:00,
2013-04-18 04:19:00,34.7,31.0,29.74,NNW,330,14.0,26.0,86,0.01,,---,0.10,0.00,VWS V14.01,2013-04-18 09:19:00,
2013-04-18 04:24:00,34.6,30.9,29.74,North,360,21.0,28.0,86,0.02,,---,0.11,0.00,VWS V14.01,2013-04-18 09:24:00,
2013-04-18 04:29:00,34.6,30.9,29.73,NW,319,14.0,30.0,86,0.02,,---,0.11,0.00,VWS V14.01,2013-04-18 09:29:00,
2013-04-18 04:30:00,34.6,30.9,29.73,NNW,340,16.0,30.0,86,0.02,,---,0.11,0.00,VWS V14.01,2013-04-18 09:30:00,
2013-04-18 04:34:00,34.6,30.9,29.74,NW,326,15.0,24.0,86,0.01,,---,0.11,0.00,VWS V14.01,2013-04-18 09:34:00,
2013-04-18 04:39:00,34.4,30.6,29.75,NNW,333,13.0,27.0,86,0.01,,---,0.11,0.00,VWS V14.01,2013-04-18 09:39:00,
2013-04-18 04:44:00,34.4,30.4,29.75,NW,323,18.0,30.0,85,0.01,,---,0.11,0.00,VWS V14.01,2013-04-18 09:44:00,
2013-04-18 04:49:00,34.4,30.4,29.75,NW,325,13.0,30.0,85,0.01,,---,0.11,0.00,VWS V14.01,2013-04-18 09:49:00,
2013-04-18 04:54:00,34.4,30.6,29.74,NNW,333,24.0,30.0,86,0.01,,---,0.11,0.00,VWS V14.01,2013-04-18 09:54:00,
2013-04-18 04:59:00,34.3,30.6,29.74,NW,311,14.0,30.0,86,0.01,,---,0.11,0.00,VWS V14.01,2013-04-18 09:59:00,
2013-04-18 05:00:00,34.3,30.6,29.74,NNW,331,20.0,30.0,86,0.01,,---,0.11,0.00,VWS V14.01,2013-04-18 10:00:00,
2013-04-18 05:04:00,34.1,30.4,29.74,NW,309,14.0,22.0,86,0.01,,---,0.11,0.00,VWS V14.01,2013-04-18 10:04:00,
2013-04-18 05:10:00,34.0,30.5,29.74,NNE,27,9.0,24.0,87,0.01,,---,0.11,0.00,VWS V14.01,2013-04-18 10:10:00,
2013-04-18 05:15:00,33.8,30.4,29.75,NNW,333,18.0,25.0,87,0.01,,---,0.11,0.00,VWS V14.01,2013-04-18 10:15:00,
2013-04-18 05:20:00,33.7,30.2,29.75,NW,321,13.0,25.0,87,0.01,,---,0.11,0.00,VWS V14.01,2013-04-18 10:20:00,
2013-04-18 05:25:00,33.7,30.5,29.76,North,5,14.0,25.0,88,0.01,,---,0.11,0.00,VWS V14.01,2013-04-18 10:25:00,
2013-04-18 05:30:00,33.4,30.0,29.76,NNW,329,15.0,15.0,87,0.00,,---,0.11,0.00,VWS V14.01,2013-04-18 10:30:00,
2013-04-18 05:35:00,33.4,30.0,29.77,NW,315,13.0,25.0,87,0.00,,---,0.11,0.00,VWS V14.01,2013-04-18 10:35:00,
2013-04-18 05:40:00,33.4,30.2,29.78,NW,326,13.0,25.0,88,0.00,,---,0.11,0.00,VWS V14.01,2013-04-18 10:40:00,
2013-04-18 05:45:00,33.1,29.7,29.78,WNW,301,10.0,31.0,87,0.00,,---,0.11,0.00,VWS V14.01,2013-04-18 10:45:00,
2013-04-18 05:50:00,33.1,29.7,29.79,NW,323,10.0,31.0,87,0.00,,---,0.11,0.00,VWS V14.01,2013-04-18 10:50:00,
2013-04-18 05:55:00,32.9,29.5,29.79,WNW,299,13.0,31.0,87,0.00,,---,0.11,0.00,VWS V14.01,2013-04-18 10:55:00,
2013-04-18 06:00:00,32.9,29.5,29.79,NW,307,21.0,31.0,87,0.00,,---,0.11,0.00,VWS V14.01,2013-04-18 11:00:00,
2013-04-18 06:05:00,32.8,28.8,29.79,NNW,333,24.0,31.0,85,0.00,,---,0.11,0.00,VWS V14.01,2013-04-18 11:05:00,
2013-04-18 06:10:00,32.8,29.1,29.80,NNW,327,12.0,31.0,86,0.00,,---,0.11,0.00,VWS V14.01,2013-04-18 11:10:00,
2013-04-18 06:15:00,32.8,29.1,29.81,NW,324,18.0,31.0,86,0.00,,---,0.11,0.00,VWS V14.01,2013-04-18 11:15:00,
2013-04-18 06:20:00,32.8,29.1,29.81,NNW,327,12.0,31.0,86,0.00,,---,0.11,0.00,VWS V14.01,2013-04-18 11:20:00,
2013-04-18 06:25:00,32.8,29.1,29.81,NW,315,21.0,31.0,86,0.00,,---,0.11,0.00,VWS V14.01,2013-04-18 11:25:00,
2013-04-18 06:30:00,32.7,29.0,29.81,NW,304,19.0,19.0,86,0.00,,---,0.11,0.00,VWS V14.01,2013-04-18 11:30:00,
2013-04-18 06:35:00,32.5,28.5,29.81,NNW,331,14.0,26.0,85,0.00,,---,0.11,0.00,VWS V14.01,2013-04-18 11:35:00,
2013-04-18 06:40:00,32.5,27.9,29.81,NW,304,17.0,31.0,83,0.00,,---,0.11,0.00,VWS V14.01,2013-04-18 11:40:00,
2013-04-18 06:45:00,32.5,27.9,29.81,NNW,347,7.0,31.0,83,0.00,,---,0.11,0.00,VWS V14.01,2013-04-18 11:45:00,
2013-04-18 06:50:00,32.4,27.8,29.81,NNW,342,19.0,31.0,83,0.00,,---,0.11,0.00,VWS V14.01,2013-04-18 11:50:00,
2013-04-18 06:55:00,32.4,27.8,29.82,NNW,329,20.0,31.0,83,0.00,,---,0.11,0.00,VWS V14.01,2013-04-18 11:55:00,
2013-04-18 07:00:00,32.4,27.8,29.82,NW,311,14.0,16.0,83,0.00,,---,0.11,0.00,VWS V14.01,2013-04-18 12:00:00,
2013-04-18 07:05:00,32.5,27.3,29.81,WNW,303,14.0,33.0,81,0.00,,---,0.11,0.00,VWS V14.01,2013-04-18 12:05:00,
2013-04-18 07:10:00,32.5,27.0,29.81,NNW,329,18.0,33.0,80,0.00,,---,0.11,0.00,VWS V14.01,2013-04-18 12:10:00,
2013-04-18 07:15:00,32.5,27.0,29.81,North,350,20.0,33.0,80,0.00,,---,0.11,5.00,VWS V14.01,2013-04-18 12:15:00,
2013-04-18 07:20:00,32.5,27.0,29.81,NW,319,16.0,33.0,80,0.00,,---,0.11,5.00,VWS V14.01,2013-04-18 12:20:00,
2013-04-18 07:25:00,32.5,27.3,29.82,NW,318,17.0,33.0,81,0.00,,---,0.11,9.00,VWS V14.01,2013-04-18 12:25:00,
2013-04-18 07:30:00,32.5,27.3,29.82,NW,308,27.0,27.0,81,0.00,,---,0.11,9.00,VWS V14.01,2013-04-18 12:30:00,
2013-04-18 07:35:00,32.4,27.2,29.82,NW,305,18.0,31.0,81,0.00,,---,0.11,12.00,VWS V14.01,2013-04-18 12:35:00,
2013-04-18 07:40:00,32.4,27.5,29.82,NNW,340,16.0,31.0,82,0.00,,---,0.11,16.00,VWS V14.01,2013-04-18 12:40:00,
2013-04-18 07:45:00,32.2,27.6,29.82,NNW,333,10.0,31.0,83,0.00,,---,0.11,21.00,VWS V14.01,2013-04-18 12:45:00,
2013-04-18 07:50:00,32.1,27.8,29.82,North,351,6.0,31.0,84,0.00,,---,0.11,23.00,VWS V14.01,2013-04-18 12:50:00,
2013-04-18 07:55:00,31.9,28.2,29.82,NW,315,14.0,31.0,86,0.00,,---,0.11,28.00,VWS V14.01,2013-04-18 12:55:00,
2013-04-18 08:00:00,31.8,28.4,29.83,North,5,13.0,16.0,87,0.00,,---,0.11,30.00,VWS V14.01,2013-04-18 13:00:00,
2013-04-18 08:05:00,31.6,28.2,29.83,NW,304,9.0,25.0,87,0.00,,---,0.11,35.00,VWS V14.01,2013-04-18 13:05:00,
2013-04-18 08:10:00,31.5,28.4,29.83,NW,322,17.0,25.0,88,0.00,,---,0.11,49.00,VWS V14.01,2013-04-18 13:10:00,
2013-04-18 08:15:00,31.3,27.9,29.83,NNW,348,16.0,26.0,87,0.00,,---,0.11,58.00,VWS V14.01,2013-04-18 13:15:00,
2013-04-18 08:20:00,31.5,27.8,29.84,NNW,329,9.0,28.0,86,0.00,,---,0.11,69.00,VWS V14.01,2013-04-18 13:20:00,
2013-04-18 08:25:00,31.8,28.1,29.84,NW,307,11.0,28.0,86,0.00,,---,0.11,54.00,VWS V14.01,2013-04-18 13:25:00,
2013-04-18 08:30:00,31.9,27.9,29.85,North,355,13.0,23.0,85,0.00,,---,0.11,54.00,VWS V14.01,2013-04-18 13:30:00,
2013-04-18 08:35:00,32.1,27.8,29.85,NW,322,24.0,26.0,84,0.00,,---,0.11,58.00,VWS V14.01,2013-04-18 13:35:00,
2013-04-18 08:40:00,32.1,27.2,29.86,NNW,331,9.0,28.0,82,0.00,,---,0.11,65.00,VWS V14.01,2013-04-18 13:40:00,
2013-04-18 08:45:00,32.4,27.2,29.87,WNW,302,15.0,28.0,81,0.00,,---,0.11,72.00,VWS V14.01,2013-04-18 13:45:00,
2013-04-18 08:50:00,32.4,26.6,29.87,NW,324,5.0,28.0,79,0.00,,---,0.11,77.00,VWS V14.01,2013-04-18 13:50:00,
2013-04-18 08:55:00,32.4,26.6,29.87,WNW,291,9.0,29.0,79,0.00,,---,0.11,74.00,VWS V14.01,2013-04-18 13:55:00,
2013-04-18 09:00:00,32.5,26.7,29.86,NNW,338,21.0,26.0,79,0.00,,---,0.11,74.00,VWS V14.01,2013-04-18 14:00:00,
2013-04-18 09:05:00,32.8,27.3,29.87,WNW,294,22.0,26.0,80,0.00,,---,0.11,93.00,VWS V14.01,2013-04-18 14:05:00,
2013-04-18 09:10:00,32.8,26.4,29.86,NW,325,17.0,30.0,77,0.00,,---,0.11,104.00,VWS V14.01,2013-04-18 14:10:00,
2013-04-18 09:15:00,32.9,26.5,29.86,North,5,19.0,30.0,77,0.00,,---,0.11,105.00,VWS V14.01,2013-04-18 14:15:00,
2013-04-18 09:21:00,32.9,26.2,29.86,NNW,329,17.0,34.0,76,0.00,,---,0.11,134.00,VWS V14.01,2013-04-18 14:21:00,
2013-04-18 09:26:00,33.1,26.0,29.86,NW,321,19.0,34.0,75,0.00,,---,0.11,139.00,VWS V14.01,2013-04-18 14:26:00,
2013-04-18 09:30:00,33.2,26.1,29.86,NW,308,17.0,34.0,75,0.00,,---,0.11,171.00,VWS V14.01,2013-04-18 14:30:00,
2013-04-18 09:31:00,33.2,25.8,29.86,NW,321,18.0,29.0,74,0.00,,---,0.11,171.00,VWS V14.01,2013-04-18 14:31:00,
2013-04-18 09:36:00,33.4,26.0,29.86,NNW,340,12.0,31.0,74,0.00,,---,0.11,158.00,VWS V14.01,2013-04-18 14:36:00,
2013-04-18 09:41:00,33.4,26.3,29.86,WNW,290,18.0,31.0,75,0.00,,---,0.11,121.00,VWS V14.01,2013-04-18 14:41:00,
2013-04-18 09:46:00,33.4,26.0,29.87,NW,323,17.0,32.0,74,0.00,,---,0.11,118.00,VWS V14.01,2013-04-18 14:46:00,
2013-04-18 09:51:00,33.5,26.1,29.87,NNW,341,27.0,32.0,74,0.00,,---,0.11,139.00,VWS V14.01,2013-04-18 14:51:00,
2013-04-18 09:56:00,33.7,26.3,29.87,NNW,331,11.0,32.0,74,0.00,,---,0.11,141.00,VWS V14.01,2013-04-18 14:56:00,
2013-04-18 10:00:00,33.7,25.6,29.87,NNW,331,24.0,33.0,72,0.00,,---,0.11,193.00,VWS V14.01,2013-04-18 15:00:00,
2013-04-18 10:01:00,33.5,25.5,29.87,NW,317,30.0,33.0,72,0.00,,---,0.11,174.00,VWS V14.01,2013-04-18 15:01:00,
2013-04-18 10:06:00,33.8,26.4,29.87,NW,325,20.0,33.0,74,0.00,,---,0.11,165.00,VWS V14.01,2013-04-18 15:06:00,
2013-04-18 10:11:00,33.8,25.7,29.88,NNW,329,26.0,34.0,72,0.00,,---,0.11,172.00,VWS V14.01,2013-04-18 15:11:00,
2013-04-18 10:16:00,34.0,25.9,29.88,NW,323,14.0,34.0,72,0.00,,---,0.11,216.00,VWS V14.01,2013-04-18 15:16:00,
2013-04-18 10:21:00,34.0,25.9,29.88,NNW,334,16.0,34.0,72,0.00,,---,0.11,193.00,VWS V14.01,2013-04-18 15:21:00,
2013-04-18 10:26:00,34.1,26.0,29.89,NW,325,25.0,34.0,72,0.00,,---,0.11,195.00,VWS V14.01,2013-04-18 15:26:00,
2013-04-18 10:30:00,34.1,25.7,29.88,NW,316,28.0,34.0,71,0.00,,---,0.11,225.00,VWS V14.01,2013-04-18 15:30:00,
2013-04-18 10:32:00,34.1,25.7,29.88,NW,304,15.0,29.0,71,0.00,,---,0.11,216.00,VWS V14.01,2013-04-18 15:32:00,
2013-04-18 10:37:00,34.4,26.0,29.88,NNW,337,21.0,30.0,71,0.00,,---,0.11,237.00,VWS V14.01,2013-04-18 15:37:00,
2013-04-18 10:42:00,34.7,26.6,29.89,NW,324,18.0,30.0,72,0.00,,---,0.11,308.00,VWS V14.01,2013-04-18 15:42:00,
2013-04-18 10:47:00,35.0,26.6,29.90,NNW,346,14.0,30.0,71,0.00,,---,0.11,255.00,VWS V14.01,2013-04-18 15:47:00,
2013-04-18 10:52:00,35.0,25.9,29.90,NW,306,17.0,30.0,69,0.00,,---,0.11,290.00,VWS V14.01,2013-04-18 15:52:00,
2013-04-18 10:57:00,35.2,26.1,29.89,NW,313,16.0,30.0,69,0.00,,---,0.11,285.00,VWS V14.01,2013-04-18 15:57:00,
2013-04-18 11:00:00,35.2,26.4,29.89,NW,312,13.0,30.0,70,0.00,,---,0.11,304.00,VWS V14.01,2013-04-18 16:00:00,
2013-04-18 11:02:00,35.2,26.1,29.90,North,355,18.0,26.0,69,0.00,,---,0.11,239.00,VWS V14.01,2013-04-18 16:02:00,
2013-04-18 11:07:00,35.3,26.2,29.90,NW,313,29.0,29.0,69,0.00,,---,0.11,269.00,VWS V14.01,2013-04-18 16:07:00,
2013-04-18 11:12:00,35.8,26.6,29.90,NW,317,10.0,29.0,69,0.00,,---,0.11,292.00,VWS V14.01,2013-04-18 16:12:00,
2013-04-18 11:17:00,35.9,26.4,29.90,NW,316,24.0,29.0,68,0.00,,---,0.11,315.00,VWS V14.01,2013-04-18 16:17:00,
2013-04-18 11:22:00,36.0,26.8,29.90,NNW,329,22.0,29.0,69,0.00,,---,0.11,278.00,VWS V14.01,2013-04-18 16:22:00,
2013-04-18 11:27:00,36.3,26.4,29.90,NNW,331,27.0,29.0,67,0.00,,---,0.11,301.00,VWS V14.01,2013-04-18 16:27:00,
2013-04-18 11:30:00,36.2,26.0,29.90,WNW,284,9.0,31.0,66,0.00,,---,0.11,369.00,VWS V14.01,2013-04-18 16:30:00,
2013-04-18 11:32:00,36.2,26.3,29.90,NW,305,7.0,26.0,67,0.00,,---,0.11,313.00,VWS V14.01,2013-04-18 16:32:00,
2013-04-18 11:37:00,36.3,26.4,29.90,NNW,332,15.0,28.0,67,0.00,,---,0.11,306.00,VWS V14.01,2013-04-18 16:37:00,
2013-04-18 11:42:00,36.5,26.2,29.90,NNW,335,24.0,30.0,66,0.00,,---,0.11,297.00,VWS V14.01,2013-04-18 16:42:00,
2013-04-18 11:47:00,36.3,26.4,29.91,NW,325,12.0,30.0,67,0.00,,---,0.11,279.00,VWS V14.01,2013-04-18 16:47:00,
2013-04-18 11:52:00,36.2,26.7,29.91,NW,321,18.0,30.0,68,0.00,,---,0.11,313.00,VWS V14.01,2013-04-18 16:52:00,
2013-04-18 11:57:00,36.2,26.3,29.90,WNW,292,18.0,30.0,67,0.00,,---,0.11,320.00,VWS V14.01,2013-04-18 16:57:00,
2013-04-18 12:00:00,36.3,26.8,29.90,NW,320,16.0,30.0,68,0.00,,---,0.11,283.00,VWS V14.01,2013-04-18 17:00:00,
2013-04-18 12:02:00,36.2,26.0,29.90,WNW,302,14.0,30.0,66,0.00,,---,0.11,343.00,VWS V14.01,2013-04-18 17:02:00,
2013-04-18 12:07:00,36.5,26.6,29.91,WNW,297,13.0,30.0,67,0.00,,---,0.11,304.00,VWS V14.01,2013-04-18 17:07:00,
2013-04-18 12:12:00,36.2,26.0,29.90,NW,324,22.0,32.0,66,0.00,,---,0.11,257.00,VWS V14.01,2013-04-18 17:12:00,
2013-04-18 12:17:00,36.3,25.7,29.91,WNW,299,24.0,32.0,65,0.00,,---,0.11,283.00,VWS V14.01,2013-04-18 17:17:00,
2013-04-18 12:22:00,36.3,26.4,29.91,NW,319,22.0,32.0,67,0.00,,---,0.11,308.00,VWS V14.01,2013-04-18 17:22:00,
2013-04-18 12:27:00,36.2,26.3,29.91,NNW,336,14.0,32.0,67,0.00,,---,0.11,345.00,VWS V14.01,2013-04-18 17:27:00,
2013-04-18 12:30:00,36.2,26.0,29.90,NW,315,21.0,32.0,66,0.00,,---,0.11,278.00,VWS V14.01,2013-04-18 17:30:00,
2013-04-18 12:32:00,36.2,26.3,29.91,WNW,290,10.0,29.0,67,0.00,,---,0.11,313.00,VWS V14.01,2013-04-18 17:32:00,
2013-04-18 12:37:00,36.5,26.2,29.90,SW,217,22.0,31.0,66,0.00,,---,0.11,318.00,VWS V14.01,2013-04-18 17:37:00,
2013-04-18 12:42:00,36.5,26.2,29.91,WNW,298,15.0,31.0,66,0.00,,---,0.11,288.00,VWS V14.01,2013-04-18 17:42:00,
2013-04-18 12:47:00,36.6,26.7,29.91,WNW,301,16.0,31.0,67,0.00,,---,0.11,276.00,VWS V14.01,2013-04-18 17:47:00,
2013-04-18 12:52:00,36.9,27.0,29.91,North,351,16.0,31.0,67,0.00,,---,0.11,271.00,VWS V14.01,2013-04-18 17:52:00,
2013-04-18 12:57:00,36.5,28.0,29.90,West,280,27.0,31.0,71,0.00,,---,0.11,313.00,VWS V14.01,2013-04-18 17:57:00,
2013-04-18 13:00:00,36.3,25.7,29.90,WNW,299,23.0,33.0,65,0.00,,---,0.11,281.00,VWS V14.01,2013-04-18 18:00:00,
2013-04-18 13:02:00,36.5,25.9,29.90,NW,317,22.0,33.0,65,0.00,,---,0.11,313.00,VWS V14.01,2013-04-18 18:02:00,
2013-04-18 13:07:00,37.0,26.3,29.90,NNW,332,15.0,33.0,65,0.00,,---,0.11,450.00,VWS V14.01,2013-04-18 18:07:00,
2013-04-18 13:12:00,37.2,26.2,29.90,NW,321,17.0,33.0,64,0.00,,---,0.11,529.00,VWS V14.01,2013-04-18 18:12:00,
2013-04-18 13:17:00,37.3,27.4,29.91,NNW,327,11.0,33.0,67,0.00,,---,0.11,299.00,VWS V14.01,2013-04-18 18:17:00,
2013-04-18 13:22:00,37.2,26.2,29.91,NW,304,21.0,33.0,64,0.00,,---,0.11,390.00,VWS V14.01,2013-04-18 18:22:00,
2013-04-18 13:27:00,37.2,26.5,29.91,WNW,301,22.0,33.0,65,0.00,,---,0.11,350.00,VWS V14.01,2013-04-18 18:27:00,
2013-04-18 13:30:00,37.5,26.8,29.92,WNW,291,15.0,33.0,65,0.00,,---,0.11,313.00,VWS V14.01,2013-04-18 18:30:00,
2013-04-18 13:32:00,37.3,26.3,29.91,North,360,19.0,27.0,64,0.00,,---,0.11,403.00,VWS V14.01,2013-04-18 18:32:00,
2013-04-18 13:37:00,37.2,26.2,29.91,NW,316,19.0,31.0,64,0.00,,---,0.11,258.00,VWS V14.01,2013-04-18 18:37:00,
2013-04-18 13:42:00,37.6,26.5,29.91,NNW,327,11.0,31.0,64,0.00,,---,0.11,374.00,VWS V14.01,2013-04-18 18:42:00,
2013-04-18 13:47:00,37.2,26.2,29.92,WNW,303,23.0,31.0,64,0.00,,---,0.11,338.00,VWS V14.01,2013-04-18 18:47:00,
2013-04-18 13:52:00,37.5,26.5,29.92,NNW,327,14.0,31.0,64,0.00,,---,0.11,378.00,VWS V14.01,2013-04-18 18:52:00,
2013-04-18 13:57:00,37.5,25.3,29.91,NW,307,16.0,31.0,61,0.00,,---,0.11,364.00,VWS V14.01,2013-04-18 18:57:00,
2013-04-18 14:00:00,37.6,25.8,29.92,WNW,290,22.0,31.0,62,0.00,,---,0.11,165.00,VWS V14.01,2013-04-18 19:00:00,
2013-04-18 14:03:00,37.3,25.9,29.92,NW,322,17.0,28.0,63,0.00,,---,0.11,181.00,VWS V14.01,2013-04-18 19:03:00,
2013-04-18 14:08:00,37.3,25.9,29.92,NW,305,14.0,28.0,63,0.00,,---,0.11,376.00,VWS V14.01,2013-04-18 19:08:00,
2013-04-18 14:13:00,37.6,26.2,29.92,NW,315,19.0,28.0,63,0.00,,---,0.11,202.00,VWS V14.01,2013-04-18 19:13:00,
2013-04-18 14:18:00,37.5,26.1,29.92,WNW,296,19.0,30.0,63,0.00,,---,0.11,197.00,VWS V14.01,2013-04-18 19:18:00,
2013-04-18 14:23:00,37.5,26.1,29.92,NNW,344,14.0,30.0,63,0.00,,---,0.11,227.00,VWS V14.01,2013-04-18 19:23:00,
2013-04-18 14:28:00,37.3,25.9,29.92,NW,311,21.0,30.0,63,0.00,,---,0.11,246.00,VWS V14.01,2013-04-18 19:28:00,
2013-04-18 14:30:00,37.2,26.2,29.92,NNW,327,19.0,30.0,64,0.00,,---,0.11,267.00,VWS V14.01,2013-04-18 19:30:00,
2013-04-18 14:33:00,37.0,26.0,29.92,NW,312,17.0,29.0,64,0.00,,---,0.11,336.00,VWS V14.01,2013-04-18 19:33:00,
2013-04-18 14:38:00,37.5,25.7,29.93,NW,315,21.0,29.0,62,0.00,,---,0.11,244.00,VWS V14.01,2013-04-18 19:38:00,
2013-04-18 14:43:00,37.8,26.4,29.93,NW,321,14.0,29.0,63,0.00,,---,0.11,237.00,VWS V14.01,2013-04-18 19:43:00,
2013-04-18 14:48:00,37.6,25.8,29.93,NNW,336,19.0,29.0,62,0.00,,---,0.11,272.00,VWS V14.01,2013-04-18 19:48:00,
2013-04-18 14:53:00,37.5,24.9,29.93,NNW,331,14.0,29.0,60,0.00,,---,0.11,220.00,VWS V14.01,2013-04-18 19:53:00,
2013-04-18 14:58:00,37.0,25.2,29.93,NW,316,14.0,29.0,62,0.00,,---,0.11,199.00,VWS V14.01,2013-04-18 19:58:00,
2013-04-18 15:00:00,36.9,25.5,29.93,West,265,14.0,29.0,63,0.00,,---,0.11,190.00,VWS V14.01,2013-04-18 20:00:00,
2013-04-18 15:03:00,36.8,25.8,29.93,NNW,347,15.0,32.0,64,0.00,,---,0.11,158.00,VWS V14.01,2013-04-18 20:03:00,
2013-04-18 15:08:00,36.8,25.8,29.94,WNW,299,13.0,32.0,64,0.00,,---,0.11,204.00,VWS V14.01,2013-04-18 20:08:00,
2013-04-18 15:13:00,36.5,25.5,29.94,West,272,8.0,32.0,64,0.00,,---,0.11,230.00,VWS V14.01,2013-04-18 20:13:00,
2013-04-18 15:18:00,36.5,24.7,29.94,NNW,330,24.0,32.0,62,0.00,,---,0.11,258.00,VWS V14.01,2013-04-18 20:18:00,
2013-04-18 15:23:00,36.8,25.0,29.94,WNW,298,17.0,32.0,62,0.00,,---,0.11,195.00,VWS V14.01,2013-04-18 20:23:00,
2013-04-18 15:28:00,36.8,24.6,29.94,NW,306,12.0,32.0,61,0.00,,---,0.11,171.00,VWS V14.01,2013-04-18 20:28:00,
2013-04-18 15:30:00,36.8,24.6,29.94,North,355,21.0,32.0,61,0.00,,---,0.11,144.00,VWS V14.01,2013-04-18 20:30:00,
2013-04-18 15:33:00,36.6,24.4,29.94,NW,309,14.0,31.0,61,0.00,,---,0.11,179.00,VWS V14.01,2013-04-18 20:33:00,
2013-04-18 15:38:00,36.6,24.4,29.94,NNW,338,11.0,31.0,61,0.00,,---,0.11,163.00,VWS V14.01,2013-04-18 20:38:00,
2013-04-18 15:43:00,36.8,25.0,29.94,NW,306,12.0,31.0,62,0.00,,---,0.11,171.00,VWS V14.01,2013-04-18 20:43:00,
2013-04-18 15:48:00,36.6,24.0,29.94,NNW,338,18.0,31.0,60,0.00,,---,0.11,151.00,VWS V14.01,2013-04-18 20:48:00,
2013-04-18 15:53:00,36.8,25.0,29.94,WNW,301,17.0,31.0,62,0.00,,---,0.11,176.00,VWS V14.01,2013-04-18 20:53:00,
2013-04-18 15:58:00,36.8,24.2,29.94,NW,311,14.0,31.0,60,0.00,,---,0.11,202.00,VWS V14.01,2013-04-18 20:58:00,
2013-04-18 16:00:00,36.8,24.2,29.94,WNW,292,13.0,31.0,60,0.00,,---,0.11,206.00,VWS V14.01,2013-04-18 21:00:00,
2013-04-18 16:03:00,36.9,24.7,29.94,WNW,294,11.0,28.0,61,0.00,,---,0.11,230.00,VWS V14.01,2013-04-18 21:03:00,
2013-04-18 16:08:00,36.9,24.3,29.95,WNW,294,20.0,28.0,60,0.00,,---,0.11,169.00,VWS V14.01,2013-04-18 21:08:00,
2013-04-18 16:13:00,36.9,24.3,29.95,NW,307,17.0,33.0,60,0.00,,---,0.11,141.00,VWS V14.01,2013-04-18 21:13:00,
2013-04-18 16:18:00,36.6,24.0,29.95,WNW,291,25.0,33.0,60,0.00,,---,0.11,260.00,VWS V14.01,2013-04-18 21:18:00,
2013-04-18 16:23:00,36.8,23.8,29.95,WNW,296,6.0,33.0,59,0.00,,---,0.11,190.00,VWS V14.01,2013-04-18 21:23:00,
2013-04-18 16:28:00,37.2,25.0,29.95,North,349,14.0,33.0,61,0.00,,---,0.11,225.00,VWS V14.01,2013-04-18 21:28:00,
2013-04-18 16:30:00,37.3,24.7,29.95,NW,317,22.0,33.0,60,0.00,,---,0.11,200.00,VWS V14.01,2013-04-18 21:30:00,
2013-04-18 16:33:00,37.0,24.4,29.95,WNW,296,19.0,23.0,60,0.00,,---,0.11,137.00,VWS V14.01,2013-04-18 21:33:00,
2013-04-18 16:38:00,37.0,24.8,29.95,NW,311,18.0,23.0,61,0.00,,---,0.11,139.00,VWS V14.01,2013-04-18 21:38:00,
2013-04-18 16:44:00,36.9,24.7,29.95,NNW,333,13.0,28.0,61,0.00,,---,0.11,105.00,VWS V14.01,2013-04-18 21:44:00,
2013-04-18 16:49:00,37.0,24.4,29.95,NNW,337,10.0,28.0,60,0.00,,---,0.11,132.00,VWS V14.01,2013-04-18 21:49:00,
2013-04-18 16:54:00,37.2,24.2,29.95,WNW,292,10.0,30.0,59,0.00,,---,0.11,116.00,VWS V14.01,2013-04-18 21:54:00,
2013-04-18 16:59:00,37.2,24.2,29.95,NNW,348,17.0,30.0,59,0.00,,---,0.11,148.00,VWS V14.01,2013-04-18 21:59:00,
2013-04-18 17:00:00,37.2,23.8,29.95,NW,319,9.0,30.0,58,0.00,,---,0.11,146.00,VWS V14.01,2013-04-18 22:00:00,
2013-04-18 17:04:00,37.3,23.9,29.95,NW,320,19.0,27.0,58,0.00,,---,0.11,134.00,VWS V14.01,2013-04-18 22:04:00,
2013-04-18 17:09:00,37.2,23.8,29.95,WSW,247,8.0,28.0,58,0.00,,---,0.11,169.00,VWS V14.01,2013-04-18 22:09:00,
2013-04-18 17:14:00,37.6,24.2,29.96,WNW,296,15.0,28.0,58,0.00,,---,0.11,151.00,VWS V14.01,2013-04-18 22:14:00,
2013-04-18 17:19:00,37.8,24.0,29.96,NW,325,12.0,28.0,57,0.00,,---,0.11,137.00,VWS V14.01,2013-04-18 22:19:00,
2013-04-18 17:24:00,37.8,24.0,29.96,NW,318,20.0,28.0,57,0.00,,---,0.11,84.00,VWS V14.01,2013-04-18 22:24:00,
2013-04-18 17:29:00,37.8,24.0,29.97,NW,315,10.0,28.0,57,0.00,,---,0.11,62.00,VWS V14.01,2013-04-18 22:29:00,
2013-04-18 17:30:00,37.8,24.0,29.97,NW,304,9.0,28.0,57,0.00,,---,0.11,62.00,VWS V14.01,2013-04-18 22:30:00,
2013-04-18 17:34:00,37.6,23.8,29.97,WNW,298,12.0,24.0,57,0.00,,---,0.11,130.00,VWS V14.01,2013-04-18 22:34:00,
2013-04-18 17:39:00,37.6,23.8,29.97,NW,321,17.0,27.0,57,0.00,,---,0.11,156.00,VWS V14.01,2013-04-18 22:39:00,
2013-04-18 17:44:00,37.8,24.0,29.97,NW,319,15.0,27.0,57,0.00,,---,0.11,134.00,VWS V14.01,2013-04-18 22:44:00,
2013-04-18 17:49:00,37.9,24.0,29.97,NNW,342,18.0,27.0,57,0.00,,---,0.11,120.00,VWS V14.01,2013-04-18 22:49:00,
2013-04-18 17:54:00,38.0,23.3,29.97,NNW,336,10.0,27.0,55,0.00,,---,0.11,93.00,VWS V14.01,2013-04-18 22:54:00,
2013-04-18 17:59:00,38.2,23.5,29.97,NW,317,13.0,27.0,55,0.00,,---,0.11,76.00,VWS V14.01,2013-04-18 22:59:00,
2013-04-18 18:00:00,38.2,23.5,29.97,NW,311,17.0,27.0,55,0.00,,---,0.11,63.00,VWS V14.01,2013-04-18 23:00:00,
2013-04-18 18:04:00,38.2,23.5,29.97,NNW,342,16.0,23.0,55,0.00,,---,0.11,46.00,VWS V14.01,2013-04-18 23:04:00,
2013-04-18 18:09:00,38.0,23.3,29.97,NNW,328,21.0,24.0,55,0.00,,---,0.11,47.00,VWS V14.01,2013-04-18 23:09:00,
2013-04-18 18:14:00,38.0,23.7,29.98,NW,319,6.0,24.0,56,0.00,,---,0.11,32.00,VWS V14.01,2013-04-18 23:14:00,
2013-04-18 18:19:00,37.9,23.6,29.97,WNW,296,16.0,24.0,56,0.00,,---,0.11,42.00,VWS V14.01,2013-04-18 23:19:00,
2013-04-18 18:24:00,37.9,23.6,29.98,NW,323,10.0,24.0,56,0.00,,---,0.11,47.00,VWS V14.01,2013-04-18 23:24:00,
2013-04-18 18:29:00,37.9,23.6,29.98,NW,317,14.0,24.0,56,0.00,,---,0.11,53.00,VWS V14.01,2013-04-18 23:29:00,
2013-04-18 18:30:00,37.9,23.6,29.98,NW,304,20.0,24.0,56,0.00,,---,0.11,51.00,VWS V14.01,2013-04-18 23:30:00,
2013-04-18 18:34:00,37.9,23.2,29.98,NNW,339,12.0,24.0,55,0.00,,---,0.11,46.00,VWS V14.01,2013-04-18 23:34:00,
2013-04-18 18:39:00,38.0,23.3,29.98,NW,325,12.0,24.0,55,0.00,,---,0.11,47.00,VWS V14.01,2013-04-18 23:39:00,
2013-04-18 18:44:00,37.9,23.2,29.98,NNW,328,16.0,24.0,55,0.00,,---,0.11,58.00,VWS V14.01,2013-04-18 23:44:00,
2013-04-18 18:49:00,37.9,22.8,29.97,NNW,336,16.0,24.0,54,0.00,,---,0.11,30.00,VWS V14.01,2013-04-18 23:49:00,
2013-04-18 18:54:00,37.9,23.2,29.98,NW,314,12.0,24.0,55,0.00,,---,0.11,16.00,VWS V14.01,2013-04-18 23:54:00,
2013-04-18 18:59:00,37.9,24.0,29.98,NW,309,16.0,24.0,57,0.00,,---,0.11,23.00,VWS V14.01,2013-04-18 23:59:00,
2013-04-18 19:00:00,37.9,24.0,29.98,WNW,301,15.0,24.0,57,0.00,,---,0.11,30.00,VWS V14.01,2013-04-19 00:00:00,
2013-04-18 19:04:00,37.8,24.4,29.98,NW,313,9.0,15.0,58,0.00,,---,0.11,33.00,VWS V14.01,2013-04-19 00:04:00,
2013-04-18 19:09:00,37.8,23.5,29.98,WNW,301,12.0,21.0,56,0.00,,---,0.11,32.00,VWS V14.01,2013-04-19 00:09:00,
2013-04-18 19:14:00,37.8,23.5,29.98,WNW,293,12.0,21.0,56,0.00,,---,0.11,26.00,VWS V14.01,2013-04-19 00:14:00,
2013-04-18 19:19:00,37.8,24.0,29.98,WNW,302,9.0,21.0,57,0.00,,---,0.11,14.00,VWS V14.01,2013-04-19 00:19:00,
2013-04-18 19:24:00,37.8,23.5,29.98,NNW,334,9.0,21.0,56,0.00,,---,0.11,12.00,VWS V14.01,2013-04-19 00:24:00,
2013-04-18 19:29:00,37.8,24.0,29.99,WNW,298,7.0,21.0,57,0.00,,---,0.11,16.00,VWS V14.01,2013-04-19 00:29:00,
2013-04-18 19:30:00,37.8,24.0,29.99,NNW,332,9.0,21.0,57,0.00,,---,0.11,18.00,VWS V14.01,2013-04-19 00:30:00,
2013-04-18 19:34:00,37.8,23.5,29.99,WNW,289,16.0,20.0,56,0.00,,---,0.11,16.00,VWS V14.01,2013-04-19 00:34:00,
2013-04-18 19:39:00,37.6,23.8,29.99,NNW,338,17.0,24.0,57,0.00,,---,0.11,12.00,VWS V14.01,2013-04-19 00:39:00,
2013-04-18 19:44:00,37.6,23.8,29.99,WNW,296,16.0,26.0,57,0.00,,---,0.11,18.00,VWS V14.01,2013-04-19 00:44:00,
2013-04-18 19:49:00,37.5,23.7,29.99,WNW,302,13.0,26.0,57,0.00,,---,0.11,18.00,VWS V14.01,2013-04-19 00:49:00,
2013-04-18 19:54:00,37.5,24.1,29.99,NW,308,7.0,26.0,58,0.00,,---,0.11,9.00,VWS V14.01,2013-04-19 00:54:00,
2013-04-18 19:59:00,37.6,24.2,29.99,WNW,301,10.0,26.0,58,0.00,,---,0.11,5.00,VWS V14.01,2013-04-19 00:59:00,
2013-04-18 20:00:00,37.6,24.2,29.99,WNW,294,6.0,26.0,58,0.00,,---,0.11,5.00,VWS V14.01,2013-04-19 01:00:00,
2013-04-18 20:04:00,37.5,24.1,29.99,WNW,299,12.0,19.0,58,0.00,,---,0.11,5.00,VWS V14.01,2013-04-19 01:04:00,
2013-04-18 20:09:00,37.5,24.5,29.99,NW,304,18.0,19.0,59,0.00,,---,0.11,0.00,VWS V14.01,2013-04-19 01:09:00,
2013-04-18 20:14:00,37.5,24.1,29.99,NW,315,14.0,19.0,58,0.00,,---,0.11,0.00,VWS V14.01,2013-04-19 01:14:00,
2013-04-18 20:19:00,37.6,24.2,30.00,WNW,302,12.0,22.0,58,0.00,,---,0.11,0.00,VWS V14.01,2013-04-19 01:19:00,
2013-04-18 20:24:00,37.6,24.2,30.00,WNW,300,7.0,22.0,58,0.00,,---,0.11,0.00,VWS V14.01,2013-04-19 01:24:00,
2013-04-18 20:29:00,37.6,23.8,30.00,NNW,338,6.0,22.0,57,0.00,,---,0.11,0.00,VWS V14.01,2013-04-19 01:29:00,
2013-04-18 20:30:00,37.6,23.8,30.00,NNW,333,7.0,22.0,57,0.00,,---,0.11,0.00,VWS V14.01,2013-04-19 01:30:00,
2013-04-18 20:34:00,37.6,23.8,30.00,West,272,4.0,16.0,57,0.00,,---,0.11,0.00,VWS V14.01,2013-04-19 01:34:00,
2013-04-18 20:39:00,37.5,23.2,30.00,NNW,342,15.0,21.0,56,0.00,,---,0.11,0.00,VWS V14.01,2013-04-19 01:39:00,
2013-04-18 20:44:00,37.5,23.2,30.00,West,281,16.0,22.0,56,0.00,,---,0.11,0.00,VWS V14.01,2013-04-19 01:44:00,
2013-04-18 20:49:00,37.5,22.8,30.00,NNW,337,10.0,23.0,55,0.00,,---,0.11,0.00,VWS V14.01,2013-04-19 01:49:00,
2013-04-18 20:54:00,37.3,23.1,30.00,NNW,329,11.0,28.0,56,0.00,,---,0.11,0.00,VWS V14.01,2013-04-19 01:54:00,
2013-04-18 20:59:00,37.3,23.1,30.01,NW,317,7.0,28.0,56,0.00,,---,0.11,0.00,VWS V14.01,2013-04-19 01:59:00,
2013-04-18 21:00:00,37.2,23.0,30.01,NW,325,7.0,28.0,56,0.00,,---,0.11,0.00,VWS V14.01,2013-04-19 02:00:00,
2013-04-18 21:04:00,37.2,23.4,30.01,North,360,5.0,20.0,57,0.00,,---,0.11,0.00,VWS V14.01,2013-04-19 02:04:00,
2013-04-18 21:09:00,37.0,23.2,30.01,North,360,8.0,20.0,57,0.00,,---,0.11,0.00,VWS V14.01,2013-04-19 02:09:00,
2013-04-18 21:14:00,37.0,23.6,30.01,WNW,285,6.0,20.0,58,0.00,,---,0.11,0.00,VWS V14.01,2013-04-19 02:14:00,
2013-04-18 21:19:00,36.9,23.5,30.02,WNW,284,16.0,20.0,58,0.00,,---,0.11,0.00,VWS V14.01,2013-04-19 02:19:00,
2013-04-18 21:24:00,36.9,23.5,30.02,NW,309,9.0,20.0,58,0.00,,---,0.11,0.00,VWS V14.01,2013-04-19 02:24:00,
2013-04-18 21:29:00,36.8,23.8,30.02,NW,306,9.0,20.0,59,0.00,,---,0.11,0.00,VWS V14.01,2013-04-19 02:29:00,
2013-04-18 21:30:00,36.8,23.8,30.02,NW,319,7.0,20.0,59,0.00,,---,0.11,0.00,VWS V14.01,2013-04-19 02:30:00,
2013-04-18 21:34:00,36.6,24.0,30.02,WNW,290,7.0,11.0,60,0.00,,---,0.11,0.00,VWS V14.01,2013-04-19 02:34:00,
2013-04-18 21:39:00,36.6,24.0,30.02,WNW,300,6.0,11.0,60,0.00,,---,0.11,0.00,VWS V14.01,2013-04-19 02:39:00,
2013-04-18 21:44:00,36.5,24.3,30.02,WNW,298,5.0,13.0,61,0.00,,---,0.11,0.00,VWS V14.01,2013-04-19 02:44:00,
2013-04-18 21:49:00,36.3,24.1,30.03,WNW,302,6.0,14.0,61,0.00,,---,0.11,0.00,VWS V14.01,2013-04-19 02:49:00,
2013-04-18 21:54:00,36.0,23.9,30.03,WNW,298,13.0,15.0,61,0.00,,---,0.11,0.00,VWS V14.01,2013-04-19 02:54:00,
2013-04-18 21:59:00,35.9,23.8,30.03,NW,304,10.0,15.0,61,0.00,,---,0.11,0.00,VWS V14.01,2013-04-19 02:59:00,
2013-04-18 22:00:00,35.9,23.8,30.03,WNW,303,6.0,15.0,61,0.00,,---,0.11,0.00,VWS V14.01,2013-04-19 03:00:00,
2013-04-18 22:04:00,35.8,23.7,30.03,NW,319,7.0,15.0,61,0.00,,---,0.11,0.00,VWS V14.01,2013-04-19 03:04:00,
2013-04-18 22:09:00,35.6,23.5,30.03,NW,306,12.0,15.0,61,0.00,,---,0.11,0.00,VWS V14.01,2013-04-19 03:09:00,
2013-04-18 22:14:00,35.6,23.9,30.03,NW,315,9.0,15.0,62,0.00,,---,0.11,0.00,VWS V14.01,2013-04-19 03:14:00,
2013-04-18 22:19:00,35.6,23.9,30.03,WNW,293,5.0,15.0,62,0.00,,---,0.11,0.00,VWS V14.01,2013-04-19 03:19:00,
2013-04-18 22:24:00,35.5,23.8,30.03,WNW,299,8.0,15.0,62,0.00,,---,0.11,0.00,VWS V14.01,2013-04-19 03:24:00,
2013-04-18 22:29:00,35.5,24.2,30.04,NNW,333,6.0,15.0,63,0.00,,---,0.11,0.00,VWS V14.01,2013-04-19 03:29:00,
2013-04-18 22:30:00,35.5,24.2,30.04,NW,325,8.0,15.0,63,0.00,,---,0.11,0.00,VWS V14.01,2013-04-19 03:30:00,
2013-04-18 22:34:00,35.5,24.2,30.03,WNW,302,6.0,13.0,63,0.00,,---,0.11,0.00,VWS V14.01,2013-04-19 03:34:00,
2013-04-18 22:39:00,35.6,23.9,30.03,WNW,299,10.0,13.0,62,0.00,,---,0.11,0.00,VWS V14.01,2013-04-19 03:39:00,
2013-04-18 22:44:00,35.5,23.8,30.03,West,268,8.0,13.0,62,0.00,,---,0.11,0.00,VWS V14.01,2013-04-19 03:44:00,
2013-04-18 22:49:00,35.3,24.0,30.03,NW,304,4.0,17.0,63,0.00,,---,0.11,0.00,VWS V14.01,2013-04-19 03:49:00,
2013-04-18 22:54:00,35.0,24.1,30.03,WNW,295,11.0,17.0,64,0.00,,---,0.11,0.00,VWS V14.01,2013-04-19 03:54:00,
2013-04-18 22:59:00,34.9,24.0,30.03,NNW,327,6.0,17.0,64,0.00,,---,0.11,0.00,VWS V14.01,2013-04-19 03:59:00,
2013-04-18 23:00:00,34.9,24.0,30.03,NW,304,5.0,17.0,64,0.00,,---,0.11,0.00,VWS V14.01,2013-04-19 04:00:00,
2013-04-18 23:01:00,34.7,23.8,30.03,NW,310,11.0,12.0,64,0.00,,---,0.11,0.00,VWS V14.01,2013-04-19 04:01:00,
2013-04-18 23:02:00,34.7,23.8,30.03,NW,312,9.0,12.0,64,0.00,,---,0.11,0.00,VWS V14.01,2013-04-19 04:02:00,
2013-04-18 23:07:00,34.6,24.1,30.03,WNW,293,7.0,12.0,65,0.00,,---,0.11,0.00,VWS V14.01,2013-04-19 04:07:00,
2013-04-18 23:12:00,34.3,23.8,30.03,WNW,297,7.0,13.0,65,0.00,,---,0.11,0.00,VWS V14.01,2013-04-19 04:12:00,
2013-04-18 23:17:00,34.1,24.0,30.03,West,281,4.0,13.0,66,0.00,,---,0.11,0.00,VWS V14.01,2013-04-19 04:17:00,
2013-04-18 23:22:00,34.0,23.9,30.03,NW,315,3.0,13.0,66,0.00,,---,0.11,0.00,VWS V14.01,2013-04-19 04:22:00,
2013-04-18 23:27:00,33.8,23.7,30.03,NW,306,9.0,13.0,66,0.00,,---,0.11,0.00,VWS V14.01,2013-04-19 04:27:00,
2013-04-18 23:30:00,33.7,23.9,30.02,WNW,294,7.0,13.0,67,0.00,,---,0.11,0.00,VWS V14.01,2013-04-19 04:30:00,
2013-04-18 23:32:00,33.7,23.9,30.02,WNW,292,7.0,9.0,67,0.00,,---,0.11,0.00,VWS V14.01,2013-04-19 04:32:00,
2013-04-18 23:37:00,33.5,24.1,30.02,West,279,6.0,12.0,68,0.00,,---,0.11,0.00,VWS V14.01,2013-04-19 04:37:00,
2013-04-18 23:42:00,33.2,24.1,30.02,WNW,292,10.0,12.0,69,0.00,,---,0.11,0.00,VWS V14.01,2013-04-19 04:42:00,
2013-04-18 23:47:00,32.9,23.9,30.02,WNW,288,4.0,12.0,69,0.00,,---,0.11,0.00,VWS V14.01,2013-04-19 04:47:00,
2013-04-18 23:52:00,32.8,24.1,30.02,West,279,8.0,12.0,70,0.00,,---,0.11,0.00,VWS V14.01,2013-04-19 04:52:00,
2013-04-18 23:57:00,32.8,24.1,30.02,West,280,6.0,12.0,70,0.00,,---,0.11,0.00,VWS V14.01,2013-04-19 04:57:00,